Time,TemperatureF,DewpointF,PressureIn,WindDirection,WindDirectionDegrees,WindSpeedMPH,WindSpeedGustMPH,Humidity,HourlyPrecipIn,Conditions,Clouds,dailyrainin,SoftwareType,DateUTC
2013-03-15 00:04:00,37.8,29.6,30.24,NE,49,1.0,1.0,72,0.00,,SKC,0.00,VWS V14.00,2013-03-15 06:04:00,
2013-03-15 00:09:00,37.7,29.5,30.24,East,81,0.0,3.0,72,0.00,,SKC,0.00,VWS V14.00,2013-03-15 06:09:00,
2013-03-15 00:14:00,37.5,29.6,30.24,East,81,0.0,3.0,73,0.00,,SKC,0.00,VWS V14.00,2013-03-15 06:14:00,
2013-03-15 00:19:00,37.2,28.7,30.24,East,81,0.0,3.0,71,0.00,,SKC,0.00,VWS V14.00,2013-03-15 06:19:00,
2013-03-15 00:25:00,36.8,28.6,30.24,North,360,1.0,5.0,72,0.00,,SKC,0.00,VWS V14.00,2013-03-15 06:25:00,
2013-03-15 00:30:00,36.6,28.8,30.24,North,360,2.0,5.0,73,0.00,,SKC,0.00,VWS V14.00,2013-03-15 06:30:00,
2013-03-15 00:36:00,36.5,29.0,30.23,North,360,0.0,1.0,74,0.00,,SKC,0.00,VWS V14.00,2013-03-15 06:36:00,
2013-03-15 00:41:00,36.3,28.5,30.23,North,9,1.0,2.0,73,0.00,,SKC,0.00,VWS V14.00,2013-03-15 06:41:00,
2013-03-15 00:46:00,36.4,28.9,30.23,ENE,78,0.0,3.0,74,0.00,,SKC,0.00,VWS V14.00,2013-03-15 06:46:00,
2013-03-15 00:52:00,36.4,28.9,30.23,ENE,78,0.0,3.0,74,0.00,,SKC,0.00,VWS V14.00,2013-03-15 06:52:00,
2013-03-15 00:57:00,36.4,28.6,30.23,ENE,78,2.0,4.0,73,0.00,,SKC,0.00,VWS V14.00,2013-03-15 06:57:00,
2013-03-15 01:02:00,36.4,28.6,30.23,ENE,78,0.0,0.0,73,0.00,,SKC,0.00,VWS V14.00,2013-03-15 07:02:00,
2013-03-15 01:08:00,36.3,28.5,30.23,ENE,78,0.0,0.0,73,0.00,,SKC,0.00,VWS V14.00,2013-03-15 07:08:00,
2013-03-15 01:13:00,36.2,28.7,30.23,ENE,78,0.0,2.0,74,0.00,,SKC,0.00,VWS V14.00,2013-03-15 07:13:00,
2013-03-15 01:19:00,36.0,28.5,30.23,ENE,78,0.0,3.0,74,0.00,,SKC,0.00,VWS V14.00,2013-03-15 07:19:00,
2013-03-15 01:24:00,35.8,28.7,30.23,ENE,78,2.0,3.0,75,0.00,,SKC,0.00,VWS V14.00,2013-03-15 07:24:00,
2013-03-15 01:29:00,35.3,28.5,30.23,ENE,78,0.0,3.0,76,0.00,,SKC,0.00,VWS V14.00,2013-03-15 07:29:00,
2013-03-15 01:34:00,35.1,29.3,30.23,ENE,78,2.0,3.0,79,0.00,,SKC,0.00,VWS V14.00,2013-03-15 07:34:00,
2013-03-15 01:40:00,35.2,28.7,30.23,ENE,78,0.0,3.0,77,0.00,,SKC,0.00,VWS V14.00,2013-03-15 07:40:00,
2013-03-15 01:45:00,34.9,27.8,30.22,ENE,78,1.0,3.0,75,0.00,,SKC,0.00,VWS V14.00,2013-03-15 07:45:00,
2013-03-15 01:50:00,34.6,28.1,30.22,ENE,78,0.0,3.0,77,0.00,,SKC,0.00,VWS V14.00,2013-03-15 07:50:00,
2013-03-15 01:56:00,34.5,28.4,30.22,ENE,78,2.0,3.0,78,0.00,,SKC,0.00,VWS V14.00,2013-03-15 07:56:00,
2013-03-15 02:02:00,34.0,27.6,30.23,ENE,78,1.0,3.0,77,0.00,,SKC,0.00,VWS V14.00,2013-03-15 08:02:00,
2013-03-15 02:07:00,33.8,27.7,30.23,ENE,78,0.0,3.0,78,0.00,,SKC,0.00,VWS V14.00,2013-03-15 08:07:00,
2013-03-15 02:12:00,33.5,27.4,30.22,ENE,78,0.0,3.0,78,0.00,,SKC,0.00,VWS V14.00,2013-03-15 08:12:00,
2013-03-15 02:18:00,33.6,27.8,30.22,ENE,78,0.0,3.0,79,0.00,,SKC,0.00,VWS V14.00,2013-03-15 08:18:00,
2013-03-15 02:23:00,34.0,28.2,30.22,ENE,78,0.0,3.0,79,0.00,,SKC,0.00,VWS V14.00,2013-03-15 08:23:00,
2013-03-15 02:28:00,34.0,27.9,30.22,ENE,78,0.0,3.0,78,0.00,,SKC,0.00,VWS V14.00,2013-03-15 08:28:00,
2013-03-15 02:34:00,34.1,28.0,30.22,ENE,78,0.0,0.0,78,0.00,,SKC,0.00,VWS V14.00,2013-03-15 08:34:00,
2013-03-15 02:39:00,34.4,28.6,30.22,ENE,78,0.0,1.0,79,0.00,,SKC,0.00,VWS V14.00,2013-03-15 08:39:00,
2013-03-15 02:44:00,34.5,28.4,30.21,ENE,78,0.0,3.0,78,0.00,,SKC,0.00,VWS V14.00,2013-03-15 08:44:00,
2013-03-15 02:50:00,34.4,28.3,30.21,ENE,78,1.0,3.0,78,0.00,,SKC,0.00,VWS V14.00,2013-03-15 08:50:00,
2013-03-15 02:55:00,34.3,27.9,30.21,ENE,78,0.0,3.0,77,0.00,,SKC,0.00,VWS V14.00,2013-03-15 08:55:00,
2013-03-15 03:01:00,34.2,27.8,30.21,ENE,78,0.0,3.0,77,0.00,,SKC,0.00,VWS V14.00,2013-03-15 09:01:00,
2013-03-15 03:07:00,33.9,27.8,30.20,ENE,78,0.0,1.0,78,0.00,,SKC,0.00,VWS V14.00,2013-03-15 09:07:00,
2013-03-15 03:12:00,33.7,27.9,30.20,ENE,78,0.0,1.0,79,0.00,,SKC,0.00,VWS V14.00,2013-03-15 09:12:00,
2013-03-15 03:17:00,33.6,28.1,30.20,ENE,73,0.0,3.0,80,0.00,,SKC,0.00,VWS V14.00,2013-03-15 09:17:00,
2013-03-15 03:23:00,33.3,27.8,30.20,ENE,73,1.0,3.0,80,0.00,,SKC,0.00,VWS V14.00,2013-03-15 09:23:00,
2013-03-15 03:28:00,33.2,28.3,30.20,ENE,73,1.0,3.0,82,0.00,,SKC,0.00,VWS V14.00,2013-03-15 09:28:00,
2013-03-15 03:33:00,33.4,28.2,30.19,ENE,64,0.0,3.0,81,0.00,,SKC,0.00,VWS V14.00,2013-03-15 09:33:00,
2013-03-15 03:38:00,32.8,27.3,30.19,ENE,64,0.0,3.0,80,0.00,,SKC,0.00,VWS V14.00,2013-03-15 09:38:00,
2013-03-15 03:43:00,32.7,27.5,30.19,ENE,64,0.0,3.0,81,0.00,,SKC,0.00,VWS V14.00,2013-03-15 09:43:00,
2013-03-15 03:49:00,32.9,28.0,30.18,ENE,64,0.0,3.0,82,0.00,,SKC,0.00,VWS V14.00,2013-03-15 09:49:00,
2013-03-15 03:54:00,33.0,28.4,30.18,ENE,64,0.0,3.0,83,0.00,,SKC,0.00,VWS V14.00,2013-03-15 09:54:00,
2013-03-15 03:59:00,32.9,28.6,30.18,ENE,64,0.0,3.0,84,0.00,,SKC,0.00,VWS V14.00,2013-03-15 09:59:00,
2013-03-15 04:05:00,32.6,27.4,30.18,ENE,58,2.0,3.0,81,0.00,,SKC,0.00,VWS V14.00,2013-03-15 10:05:00,
2013-03-15 04:10:00,32.3,27.4,30.18,NE,44,0.0,3.0,82,0.00,,SKC,0.00,VWS V14.00,2013-03-15 10:10:00,
2013-03-15 04:15:00,32.1,27.2,30.17,NE,44,0.0,3.0,82,0.00,,SKC,0.00,VWS V14.00,2013-03-15 10:15:00,
2013-03-15 04:21:00,32.1,27.2,30.18,NE,44,0.0,3.0,82,0.00,,SKC,0.00,VWS V14.00,2013-03-15 10:21:00,
2013-03-15 04:27:00,31.9,27.9,30.18,NE,44,0.0,3.0,85,0.00,,SKC,0.00,VWS V14.00,2013-03-15 10:27:00,
2013-03-15 04:32:00,31.5,26.6,30.18,NE,44,0.0,3.0,82,0.00,,SKC,0.00,VWS V14.00,2013-03-15 10:32:00,
2013-03-15 04:37:00,31.3,27.0,30.18,NE,44,0.0,1.0,84,0.00,,SKC,0.00,VWS V14.00,2013-03-15 10:37:00,
2013-03-15 04:43:00,31.4,27.4,30.17,ENE,76,1.0,2.0,85,0.00,,SKC,0.00,VWS V14.00,2013-03-15 10:43:00,
2013-03-15 04:48:00,31.5,27.2,30.17,ENE,76,0.0,2.0,84,0.00,,SKC,0.00,VWS V14.00,2013-03-15 10:48:00,
2013-03-15 04:53:00,31.3,26.8,30.17,ENE,76,0.0,3.0,83,0.00,,SKC,0.00,VWS V14.00,2013-03-15 10:53:00,
2013-03-15 04:59:00,30.9,26.4,30.16,ENE,75,0.0,3.0,83,0.00,,SKC,0.00,VWS V14.00,2013-03-15 10:59:00,
2013-03-15 05:04:00,30.7,26.5,30.17,ENE,75,1.0,2.0,84,0.00,,SKC,0.00,VWS V14.00,2013-03-15 11:04:00,
2013-03-15 05:10:00,30.4,26.1,30.17,ENE,75,2.0,3.0,84,0.00,,SKC,0.00,VWS V14.00,2013-03-15 11:10:00,
2013-03-15 05:15:00,30.6,27.2,30.18,ENE,75,0.0,3.0,87,0.00,,SKC,0.00,VWS V14.00,2013-03-15 11:15:00,
2013-03-15 05:20:00,30.7,27.3,30.17,ENE,75,0.0,3.0,87,0.00,,SKC,0.00,VWS V14.00,2013-03-15 11:20:00,
2013-03-15 05:26:00,30.4,26.1,30.17,ENE,75,2.0,3.0,84,0.00,,SKC,0.00,VWS V14.00,2013-03-15 11:26:00,
2013-03-15 05:31:00,30.1,26.4,30.18,ENE,75,0.0,3.0,86,0.00,,SKC,0.00,VWS V14.00,2013-03-15 11:31:00,
2013-03-15 05:37:00,30.2,26.8,30.17,ENE,75,1.0,2.0,87,0.00,,SKC,0.00,VWS V14.00,2013-03-15 11:37:00,
2013-03-15 05:42:00,30.0,26.0,30.17,ENE,75,0.0,2.0,85,0.00,,SKC,0.00,VWS V14.00,2013-03-15 11:42:00,
2013-03-15 05:47:00,30.0,26.6,30.17,ENE,75,0.0,2.0,87,0.00,,SKC,0.00,VWS V14.00,2013-03-15 11:47:00,
2013-03-15 05:53:00,29.8,25.9,30.17,ENE,75,0.0,2.0,85,0.00,,SKC,0.00,VWS V14.00,2013-03-15 11:53:00,
2013-03-15 05:58:00,29.8,26.1,30.17,ENE,75,0.0,2.0,86,0.00,,SKC,0.00,VWS V14.00,2013-03-15 11:58:00,
2013-03-15 06:03:00,29.9,26.8,30.17,ENE,75,0.0,0.0,88,0.00,,SKC,0.00,VWS V14.00,2013-03-15 12:03:00,
2013-03-15 06:08:00,30.1,26.7,30.17,ENE,75,0.0,1.0,87,0.00,,SKC,0.00,VWS V14.00,2013-03-15 12:08:00,
2013-03-15 06:14:00,29.9,26.2,30.17,ENE,75,0.0,2.0,86,0.00,,SKC,0.00,VWS V14.00,2013-03-15 12:14:00,
2013-03-15 06:19:00,29.8,26.1,30.17,ENE,75,2.0,3.0,86,0.00,,SKC,0.00,VWS V14.00,2013-03-15 12:19:00,
2013-03-15 06:24:00,29.8,26.1,30.17,ENE,75,0.0,3.0,86,0.00,,SKC,0.00,VWS V14.00,2013-03-15 12:24:00,
2013-03-15 06:30:00,30.0,26.9,30.16,ENE,75,0.0,3.0,88,0.00,,SKC,0.00,VWS V14.00,2013-03-15 12:30:00,
2013-03-15 06:35:00,29.9,26.2,30.16,ENE,75,0.0,1.0,86,0.00,,SKC,0.00,VWS V14.00,2013-03-15 12:35:00,
2013-03-15 06:40:00,29.9,26.8,30.16,ENE,75,0.0,1.0,88,0.00,,SKC,0.00,VWS V14.00,2013-03-15 12:40:00,
2013-03-15 06:45:00,30.1,26.7,30.16,ENE,75,0.0,1.0,87,0.00,,SKC,0.00,VWS V14.00,2013-03-15 12:45:00,
2013-03-15 06:50:00,30.0,26.3,30.17,ENE,75,0.0,1.0,86,0.00,,SKC,0.00,VWS V14.00,2013-03-15 12:50:00,
2013-03-15 06:56:00,29.9,26.5,30.17,ENE,75,1.0,2.0,87,0.00,,SKC,0.00,VWS V14.00,2013-03-15 12:56:00,
2013-03-15 07:01:00,30.3,26.9,30.16,ENE,75,1.0,2.0,87,0.00,,SKC,0.00,VWS V14.00,2013-03-15 13:01:00,
2013-03-15 07:06:00,30.2,26.5,30.17,ENE,75,0.0,1.0,86,0.00,,SKC,0.00,VWS V14.00,2013-03-15 13:06:00,
2013-03-15 07:12:00,30.4,26.7,30.17,ENE,75,0.0,2.0,86,0.00,,SKC,0.00,VWS V14.00,2013-03-15 13:12:00,
2013-03-15 07:17:00,30.3,26.6,30.17,ENE,75,0.0,2.0,86,0.00,,SKC,0.00,VWS V14.00,2013-03-15 13:17:00,
2013-03-15 07:22:00,30.2,28.2,30.17,ENE,75,0.0,2.0,92,0.00,,SKC,0.00,VWS V14.00,2013-03-15 13:22:00,
2013-03-15 07:27:00,30.3,26.9,30.16,ENE,75,1.0,2.0,87,0.00,,SKC,0.00,VWS V14.00,2013-03-15 13:27:00,
2013-03-15 07:33:00,30.1,26.1,30.16,ENE,75,0.0,0.0,85,0.00,,SKC,0.00,VWS V14.00,2013-03-15 13:33:00,
2013-03-15 07:38:00,30.1,26.4,30.16,ENE,75,1.0,2.0,86,0.00,,SKC,0.00,VWS V14.00,2013-03-15 13:38:00,
2013-03-15 07:43:00,30.3,26.6,30.16,ENE,75,0.0,2.0,86,0.00,,SKC,0.00,VWS V14.00,2013-03-15 13:43:00,
2013-03-15 07:48:00,30.3,26.6,30.16,ENE,75,1.0,2.0,86,0.00,,SKC,0.00,VWS V14.00,2013-03-15 13:48:00,
2013-03-15 07:54:00,30.4,26.7,30.16,ENE,75,0.0,2.0,86,0.00,,SKC,0.00,VWS V14.00,2013-03-15 13:54:00,
2013-03-15 07:59:00,30.7,27.0,30.15,ENE,75,0.0,2.0,86,0.00,,SKC,0.00,VWS V14.00,2013-03-15 13:59:00,
2013-03-15 08:04:00,31.0,27.3,30.15,ENE,75,1.0,3.0,86,0.00,,SKC,0.00,VWS V14.00,2013-03-15 14:04:00,
2013-03-15 08:10:00,30.9,26.9,30.15,ENE,75,0.0,3.0,85,0.00,,SKC,0.00,VWS V14.00,2013-03-15 14:10:00,
2013-03-15 08:15:00,31.1,27.1,30.15,ENE,75,0.0,3.0,85,0.00,,SKC,0.00,VWS V14.00,2013-03-15 14:15:00,
2013-03-15 08:20:00,31.3,27.3,30.15,ENE,75,0.0,3.0,85,0.00,,SKC,0.00,VWS V14.00,2013-03-15 14:20:00,
2013-03-15 08:26:00,31.6,27.6,30.15,ENE,75,0.0,3.0,85,0.00,,SKC,0.00,VWS V14.00,2013-03-15 14:26:00,
2013-03-15 08:31:00,31.9,27.9,30.14,ENE,75,0.0,3.0,85,0.00,,SKC,0.00,VWS V14.00,2013-03-15 14:31:00,
2013-03-15 08:37:00,32.3,28.0,30.14,ENE,75,0.0,2.0,84,0.00,,SKC,0.00,VWS V14.00,2013-03-15 14:37:00,
2013-03-15 08:42:00,32.6,28.3,30.15,ENE,75,0.0,2.0,84,0.00,,SKC,0.00,VWS V14.00,2013-03-15 14:42:00,
2013-03-15 08:48:00,32.8,28.2,30.14,ENE,75,0.0,2.0,83,0.00,,SKC,0.00,VWS V14.00,2013-03-15 14:48:00,
2013-03-15 08:53:00,33.2,28.6,30.14,ENE,75,0.0,2.0,83,0.00,,SKC,0.00,VWS V14.00,2013-03-15 14:53:00,
2013-03-15 08:58:00,33.5,28.9,30.14,ENE,75,0.0,2.0,83,0.00,,SKC,0.00,VWS V14.00,2013-03-15 14:58:00,
2013-03-15 09:04:00,33.9,29.3,30.14,ENE,75,0.0,0.0,83,0.00,,SKC,0.00,VWS V14.00,2013-03-15 15:04:00,
2013-03-15 09:09:00,34.4,29.8,30.14,ENE,75,0.0,0.0,83,0.00,,SKC,0.00,VWS V14.00,2013-03-15 15:09:00,
2013-03-15 09:15:00,35.0,29.8,30.13,ENE,75,0.0,2.0,81,0.00,,SKC,0.00,VWS V14.00,2013-03-15 15:15:00,
2013-03-15 09:20:00,35.7,29.8,30.13,ENE,75,0.0,2.0,79,0.00,,SKC,0.00,VWS V14.00,2013-03-15 15:20:00,
2013-03-15 09:25:00,36.3,30.1,30.13,ENE,75,0.0,2.0,78,0.00,,SKC,0.00,VWS V14.00,2013-03-15 15:25:00,
2013-03-15 09:30:00,37.1,29.9,30.12,ENE,75,1.0,2.0,75,0.00,,SKC,0.00,VWS V14.00,2013-03-15 15:30:00,
2013-03-15 09:36:00,37.9,30.7,30.13,ENE,75,0.0,2.0,75,0.00,,SKC,0.00,VWS V14.00,2013-03-15 15:36:00,
2013-03-15 09:42:00,38.5,29.9,30.12,ENE,75,1.0,2.0,71,0.00,,SKC,0.00,VWS V14.00,2013-03-15 15:42:00,
2013-03-15 09:47:00,39.4,30.8,30.12,ENE,75,0.0,2.0,71,0.00,,SKC,0.00,VWS V14.00,2013-03-15 15:47:00,
2013-03-15 09:52:00,40.1,30.4,30.12,ENE,75,2.0,2.0,68,0.00,,SKC,0.00,VWS V14.00,2013-03-15 15:52:00,
2013-03-15 09:57:00,40.7,29.1,30.11,SE,136,0.0,4.0,63,0.00,,SKC,0.00,VWS V14.00,2013-03-15 15:57:00,
2013-03-15 10:03:00,41.4,29.0,30.11,SE,139,0.0,1.0,61,0.00,,SKC,0.00,VWS V14.00,2013-03-15 16:03:00,
2013-03-15 10:08:00,42.1,29.2,30.11,SE,139,0.0,2.0,60,0.00,,SKC,0.00,VWS V14.00,2013-03-15 16:08:00,
2013-03-15 10:13:00,42.6,29.3,30.11,SE,139,0.0,4.0,59,0.00,,SKC,0.00,VWS V14.00,2013-03-15 16:13:00,
2013-03-15 10:18:00,43.2,29.0,30.11,SE,139,2.0,4.0,57,0.00,,SKC,0.00,VWS V14.00,2013-03-15 16:18:00,
2013-03-15 10:24:00,43.9,29.7,30.10,SE,139,0.0,4.0,57,0.00,,SKC,0.00,VWS V14.00,2013-03-15 16:24:00,
2013-03-15 10:29:00,44.5,29.8,30.10,SE,139,0.0,4.0,56,0.00,,SKC,0.00,VWS V14.00,2013-03-15 16:29:00,
2013-03-15 10:34:00,45.1,29.5,30.10,SE,139,0.0,2.0,54,0.00,,SKC,0.00,VWS V14.00,2013-03-15 16:34:00,
2013-03-15 10:40:00,45.7,30.0,30.10,SE,139,1.0,2.0,54,0.00,,SKC,0.00,VWS V14.00,2013-03-15 16:40:00,
2013-03-15 10:45:00,46.0,30.3,30.10,SE,139,0.0,2.0,54,0.00,,SKC,0.00,VWS V14.00,2013-03-15 16:45:00,
2013-03-15 10:50:00,46.3,30.1,30.09,SE,139,0.0,2.0,53,0.00,,SKC,0.00,VWS V14.00,2013-03-15 16:50:00,
2013-03-15 10:56:00,46.7,30.0,30.09,SE,139,0.0,2.0,52,0.00,,SKC,0.00,VWS V14.00,2013-03-15 16:56:00,
2013-03-15 11:01:00,47.0,29.8,30.09,SE,139,0.0,4.0,51,0.00,,SKC,0.00,VWS V14.00,2013-03-15 17:01:00,
2013-03-15 11:06:00,47.5,29.8,30.09,SE,139,0.0,0.0,50,0.00,,SKC,0.00,VWS V14.00,2013-03-15 17:06:00,
2013-03-15 11:12:00,47.9,30.2,30.09,SE,139,0.0,0.0,50,0.00,,SKC,0.00,VWS V14.00,2013-03-15 17:12:00,
2013-03-15 11:17:00,48.2,30.0,30.09,SE,139,0.0,1.0,49,0.00,,SKC,0.00,VWS V14.00,2013-03-15 17:17:00,
2013-03-15 11:22:00,48.6,29.3,30.09,SE,139,0.0,1.0,47,0.00,,SKC,0.00,VWS V14.00,2013-03-15 17:22:00,
2013-03-15 11:27:00,49.1,29.2,30.09,SE,139,0.0,2.0,46,0.00,,SKC,0.00,VWS V14.00,2013-03-15 17:27:00,
2013-03-15 11:32:00,49.8,30.4,30.08,SE,139,0.0,0.0,47,0.00,,SKC,0.00,VWS V14.00,2013-03-15 17:32:00,
2013-03-15 11:38:00,50.5,31.0,30.08,SE,139,1.0,2.0,47,0.00,,SKC,0.00,VWS V14.00,2013-03-15 17:38:00,
2013-03-15 11:43:00,51.0,29.9,30.08,SE,139,0.0,2.0,44,0.00,,SKC,0.00,VWS V14.00,2013-03-15 17:43:00,
2013-03-15 11:49:00,51.7,31.1,30.08,SE,139,0.0,2.0,45,0.00,,SKC,0.00,VWS V14.00,2013-03-15 17:49:00,
2013-03-15 11:54:00,52.5,30.7,30.07,SE,139,1.0,4.0,43,0.00,,SKC,0.00,VWS V14.00,2013-03-15 17:54:00,
2013-03-15 12:00:00,52.8,30.9,30.08,South,178,2.0,5.0,43,0.00,,SKC,0.00,VWS V14.00,2013-03-15 18:00:00,
2013-03-15 12:05:00,53.1,31.2,30.07,South,178,1.0,2.0,43,0.00,,SKC,0.00,VWS V14.00,2013-03-15 18:05:00,
2013-03-15 12:10:00,53.6,31.7,30.07,South,179,0.0,4.0,43,0.00,,SKC,0.00,VWS V14.00,2013-03-15 18:10:00,
2013-03-15 12:16:00,54.2,31.6,30.07,South,179,1.0,4.0,42,0.00,,SKC,0.00,VWS V14.00,2013-03-15 18:16:00,
2013-03-15 12:21:00,54.7,32.7,30.06,South,180,1.0,4.0,43,0.00,,SKC,0.00,VWS V14.00,2013-03-15 18:21:00,
2013-03-15 12:27:00,55.0,32.9,30.06,South,175,4.0,6.0,43,0.00,,SKC,0.00,VWS V14.00,2013-03-15 18:27:00,
2013-03-15 12:32:00,55.1,33.0,30.06,SSW,205,1.0,6.0,43,0.00,,SKC,0.00,VWS V14.00,2013-03-15 18:32:00,
2013-03-15 12:37:00,55.4,33.3,30.05,SSW,205,0.0,3.0,43,0.00,,SKC,0.00,VWS V14.00,2013-03-15 18:37:00,
2013-03-15 12:42:00,55.7,32.4,30.05,SSW,202,3.0,4.0,41,0.00,,SKC,0.00,VWS V14.00,2013-03-15 18:42:00,
2013-03-15 12:48:00,56.0,32.7,30.05,South,180,2.0,5.0,41,0.00,,SKC,0.00,VWS V14.00,2013-03-15 18:48:00,
2013-03-15 12:53:00,56.3,32.3,30.04,South,180,2.0,5.0,40,0.00,,SKC,0.00,VWS V14.00,2013-03-15 18:53:00,
2013-03-15 12:59:00,56.6,32.6,30.04,South,180,0.0,5.0,40,0.00,,SKC,0.00,VWS V14.00,2013-03-15 18:59:00,
2013-03-15 13:04:00,57.2,31.8,30.04,South,180,0.0,3.0,38,0.00,,SKC,0.00,VWS V14.00,2013-03-15 19:04:00,
2013-03-15 13:09:00,57.8,30.4,30.03,South,180,0.0,3.0,35,0.00,,SKC,0.00,VWS V14.00,2013-03-15 19:09:00,
2013-03-15 13:15:00,58.9,29.9,30.03,South,180,2.0,3.0,33,0.00,,SKC,0.00,VWS V14.00,2013-03-15 19:15:00,
2013-03-15 13:20:00,60.0,27.7,30.03,South,169,1.0,7.0,29,0.00,,SKC,0.00,VWS V14.00,2013-03-15 19:20:00,
2013-03-15 13:25:00,60.7,28.3,30.02,SSE,148,7.0,9.0,29,0.00,,SKC,0.00,VWS V14.00,2013-03-15 19:25:00,
2013-03-15 13:31:00,61.3,27.9,30.02,South,191,12.0,13.0,28,0.00,,SKC,0.00,VWS V14.00,2013-03-15 19:31:00,
2013-03-15 13:36:00,61.5,28.1,30.01,SSW,192,6.0,11.0,28,0.00,,SKC,0.00,VWS V14.00,2013-03-15 19:36:00,
2013-03-15 13:41:00,62.0,28.5,30.01,SSW,200,3.0,11.0,28,0.00,,SKC,0.00,VWS V14.00,2013-03-15 19:41:00,
2013-03-15 13:46:00,62.6,28.2,30.01,SSW,202,4.0,11.0,27,0.00,,SKC,0.00,VWS V14.00,2013-03-15 19:46:00,
2013-03-15 13:52:00,62.7,27.4,30.01,SSW,203,7.0,11.0,26,0.00,,SKC,0.00,VWS V14.00,2013-03-15 19:52:00,
2013-03-15 13:57:00,62.5,26.2,30.01,SSW,196,8.0,11.0,25,0.00,,SKC,0.00,VWS V14.00,2013-03-15 19:57:00,
2013-03-15 14:02:00,62.6,27.3,30.00,SSW,195,3.0,15.0,26,0.00,,SKC,0.00,VWS V14.00,2013-03-15 20:02:00,
2013-03-15 14:07:00,62.7,26.4,30.00,South,179,11.0,13.0,25,0.00,,SKC,0.00,VWS V14.00,2013-03-15 20:07:00,
2013-03-15 14:12:00,62.5,27.2,30.00,South,185,2.0,13.0,26,0.00,,SKC,0.00,VWS V14.00,2013-03-15 20:12:00,
2013-03-15 14:18:00,62.6,27.3,29.99,SSW,200,5.0,13.0,26,0.00,,SKC,0.00,VWS V14.00,2013-03-15 20:18:00,
2013-03-15 14:23:00,62.2,26.9,29.99,South,174,1.0,13.0,26,0.00,,SKC,0.00,VWS V14.00,2013-03-15 20:23:00,
2013-03-15 14:28:00,62.3,27.9,29.99,SSW,202,2.0,13.0,27,0.00,,SKC,0.00,VWS V14.00,2013-03-15 20:28:00,
2013-03-15 14:34:00,62.7,26.4,29.99,South,185,7.0,10.0,25,0.00,,SKC,0.00,VWS V14.00,2013-03-15 20:34:00,
2013-03-15 14:39:00,62.7,27.4,29.98,SSW,198,5.0,10.0,26,0.00,,SKC,0.00,VWS V14.00,2013-03-15 20:39:00,
2013-03-15 14:44:00,63.0,26.6,29.98,SW,223,5.0,11.0,25,0.00,,SKC,0.00,VWS V14.00,2013-03-15 20:44:00,
2013-03-15 14:50:00,62.9,26.6,29.97,SW,233,6.0,11.0,25,0.00,,SKC,0.00,VWS V14.00,2013-03-15 20:50:00,
2013-03-15 14:55:00,63.0,28.5,29.97,SW,217,5.0,11.0,27,0.00,,SKC,0.00,VWS V14.00,2013-03-15 20:55:00,
2013-03-15 15:00:00,63.0,26.6,29.97,NW,307,5.0,12.0,25,0.00,,SKC,0.00,VWS V14.00,2013-03-15 21:00:00,
2013-03-15 15:06:00,62.9,26.6,29.97,SW,215,4.0,8.0,25,0.00,,SKC,0.00,VWS V14.00,2013-03-15 21:06:00,
2013-03-15 15:12:00,63.4,27.9,29.96,SW,214,5.0,9.0,26,0.00,,SKC,0.00,VWS V14.00,2013-03-15 21:12:00,
2013-03-15 15:17:00,63.6,26.2,29.96,SW,224,3.0,9.0,24,0.00,,SKC,0.00,VWS V14.00,2013-03-15 21:17:00,
2013-03-15 15:23:00,63.8,28.3,29.96,West,278,4.0,9.0,26,0.00,,SKC,0.00,VWS V14.00,2013-03-15 21:23:00,
2013-03-15 15:28:00,64.0,27.5,29.96,SW,235,0.0,9.0,25,0.00,,SKC,0.00,VWS V14.00,2013-03-15 21:28:00,
2013-03-15 15:33:00,64.3,27.8,29.96,West,267,4.0,6.0,25,0.00,,SKC,0.00,VWS V14.00,2013-03-15 21:33:00,
2013-03-15 15:38:00,64.6,26.0,29.96,SW,216,8.0,12.0,23,0.00,,SKC,0.00,VWS V14.00,2013-03-15 21:38:00,
2013-03-15 15:44:00,64.3,25.7,29.96,WNW,296,4.0,13.0,23,0.00,,SKC,0.00,VWS V14.00,2013-03-15 21:44:00,
2013-03-15 15:49:00,64.2,27.7,29.95,WNW,284,5.0,13.0,25,0.00,,SKC,0.00,VWS V14.00,2013-03-15 21:49:00,
2013-03-15 15:55:00,65.0,27.4,29.95,SSW,202,4.0,13.0,24,0.00,,SKC,0.00,VWS V14.00,2013-03-15 21:55:00,
2013-03-15 16:00:00,64.7,26.1,29.95,SSW,202,3.0,13.0,23,0.00,,SKC,0.00,VWS V14.00,2013-03-15 22:00:00,
2013-03-15 16:05:00,64.6,26.0,29.95,SW,225,8.0,8.0,23,0.00,,SKC,0.00,VWS V14.00,2013-03-15 22:05:00,
2013-03-15 16:10:00,64.6,27.0,29.94,SSW,208,3.0,8.0,24,0.00,,SKC,0.00,VWS V14.00,2013-03-15 22:10:00,
2013-03-15 16:16:00,65.0,27.4,29.94,SW,225,12.0,12.0,24,0.00,,SKC,0.00,VWS V14.00,2013-03-15 22:16:00,
2013-03-15 16:21:00,65.5,26.8,29.94,SSW,213,2.0,12.0,23,0.00,,SKC,0.00,VWS V14.00,2013-03-15 22:21:00,
2013-03-15 16:27:00,65.6,26.8,29.94,SSW,209,4.0,12.0,23,0.00,,SKC,0.00,VWS V14.00,2013-03-15 22:27:00,
2013-03-15 16:32:00,65.4,26.7,29.94,SW,228,3.0,12.0,23,0.00,,SKC,0.00,VWS V14.00,2013-03-15 22:32:00,
2013-03-15 16:37:00,65.3,26.6,29.93,South,170,5.0,7.0,23,0.00,,SKC,0.00,VWS V14.00,2013-03-15 22:37:00,
2013-03-15 16:43:00,65.2,26.5,29.93,SSW,192,4.0,11.0,23,0.00,,SKC,0.00,VWS V14.00,2013-03-15 22:43:00,
2013-03-15 16:48:00,64.9,26.2,29.93,South,169,8.0,11.0,23,0.00,,SKC,0.00,VWS V14.00,2013-03-15 22:48:00,
2013-03-15 16:53:00,64.4,25.8,29.93,SSW,212,1.0,11.0,23,0.00,,SKC,0.00,VWS V14.00,2013-03-15 22:53:00,
2013-03-15 16:58:00,64.1,26.6,29.93,South,188,2.0,11.0,24,0.00,,SKC,0.00,VWS V14.00,2013-03-15 22:58:00,
2013-03-15 17:04:00,63.7,26.3,29.92,SE,141,1.0,6.0,24,0.00,,SKC,0.00,VWS V14.00,2013-03-15 23:04:00,
2013-03-15 17:09:00,63.4,26.0,29.92,South,179,4.0,6.0,24,0.00,,SKC,0.00,VWS V14.00,2013-03-15 23:09:00,
2013-03-15 17:14:00,63.0,26.6,29.92,SSE,159,6.0,7.0,25,0.00,,SKC,0.00,VWS V14.00,2013-03-15 23:14:00,
2013-03-15 17:19:00,62.9,26.6,29.92,SE,144,8.0,14.0,25,0.00,,SKC,0.00,VWS V14.00,2013-03-15 23:19:00,
2013-03-15 17:24:00,62.7,25.4,29.92,South,169,4.0,14.0,24,0.00,,SKC,0.00,VWS V14.00,2013-03-15 23:24:00,
2013-03-15 17:30:00,62.7,27.4,29.92,South,171,4.0,14.0,26,0.00,,SKC,0.00,VWS V14.00,2013-03-15 23:30:00,
2013-03-15 17:35:00,62.6,26.3,29.92,SSE,161,4.0,9.0,25,0.00,,SKC,0.00,VWS V14.00,2013-03-15 23:35:00,
2013-03-15 17:40:00,62.5,26.2,29.92,SSE,161,0.0,9.0,25,0.00,,SKC,0.00,VWS V14.00,2013-03-15 23:40:00,
2013-03-15 17:45:00,62.2,28.7,29.92,SSE,150,0.0,9.0,28,0.00,,SKC,0.00,VWS V14.00,2013-03-15 23:45:00,
2013-03-15 17:50:00,62.0,26.8,29.92,South,170,2.0,9.0,26,0.00,,SKC,0.00,VWS V14.00,2013-03-15 23:50:00,
2013-03-15 17:56:00,61.9,26.7,29.92,South,171,0.0,9.0,26,0.00,,SKC,0.00,VWS V14.00,2013-03-15 23:56:00,
2013-03-15 18:02:00,61.7,26.5,29.91,SE,134,2.0,9.0,26,0.00,,SKC,0.00,VWS V14.00,2013-03-16 00:02:00,
2013-03-15 18:07:00,61.3,29.6,29.91,SE,134,1.0,2.0,30,0.00,,SKC,0.00,VWS V14.00,2013-03-16 00:07:00,
2013-03-15 18:12:00,61.0,27.7,29.90,SE,133,0.0,5.0,28,0.00,,SKC,0.00,VWS V14.00,2013-03-16 00:12:00,
2013-03-15 18:18:00,60.7,27.4,29.90,SSE,149,2.0,5.0,28,0.00,,SKC,0.00,VWS V14.00,2013-03-16 00:18:00,
2013-03-15 18:23:00,60.7,29.9,29.91,SE,139,1.0,5.0,31,0.00,,SKC,0.00,VWS V14.00,2013-03-16 00:23:00,
2013-03-15 18:28:00,59.8,27.5,29.91,SE,125,0.0,5.0,29,0.00,,SKC,0.00,VWS V14.00,2013-03-16 00:28:00,
2013-03-15 18:34:00,58.9,27.5,29.91,ENE,58,4.0,5.0,30,0.00,,SKC,0.00,VWS V14.00,2013-03-16 00:34:00,
2013-03-15 18:39:00,58.4,29.4,29.92,NNE,23,0.0,5.0,33,0.00,,SKC,0.00,VWS V14.00,2013-03-16 00:39:00,
2013-03-15 18:44:00,58.0,29.1,29.92,South,182,1.0,5.0,33,0.00,,SKC,0.00,VWS V14.00,2013-03-16 00:44:00,
2013-03-15 18:50:00,57.9,29.0,29.92,NE,49,4.0,6.0,33,0.00,,SKC,0.00,VWS V14.00,2013-03-16 00:50:00,
2013-03-15 18:55:00,57.2,27.6,29.92,ENE,63,0.0,6.0,32,0.00,,SKC,0.00,VWS V14.00,2013-03-16 00:55:00,
2013-03-15 19:00:00,55.3,29.5,29.92,NE,44,3.0,7.0,37,0.00,,SKC,0.00,VWS V14.00,2013-03-16 01:00:00,
2013-03-15 19:05:00,53.7,30.6,29.92,NNE,32,4.0,6.0,41,0.00,,SKC,0.00,VWS V14.00,2013-03-16 01:05:00,
2013-03-15 19:11:00,52.4,29.4,29.92,NE,51,1.0,6.0,41,0.00,,SKC,0.00,VWS V14.00,2013-03-16 01:11:00,
2013-03-15 19:16:00,51.7,29.9,29.92,ENE,69,5.0,9.0,43,0.00,,SKC,0.00,VWS V14.00,2013-03-16 01:16:00,
2013-03-15 19:21:00,51.7,29.4,29.92,ENE,75,2.0,9.0,42,0.00,,SKC,0.00,VWS V14.00,2013-03-16 01:21:00,
2013-03-15 19:27:00,51.2,30.6,29.92,ENE,62,1.0,9.0,45,0.00,,SKC,0.00,VWS V14.00,2013-03-16 01:27:00,
2013-03-15 19:32:00,50.5,30.0,29.92,ENE,62,1.0,9.0,45,0.00,,SKC,0.00,VWS V14.00,2013-03-16 01:32:00,
2013-03-15 19:37:00,49.7,29.8,29.92,ENE,78,1.0,4.0,46,0.00,,SKC,0.00,VWS V14.00,2013-03-16 01:37:00,
2013-03-15 19:42:00,49.0,29.7,29.92,ENE,78,3.0,4.0,47,0.00,,SKC,0.00,VWS V14.00,2013-03-16 01:42:00,
2013-03-15 19:48:00,48.3,30.5,29.92,ENE,65,0.0,5.0,50,0.00,,SKC,0.00,VWS V14.00,2013-03-16 01:48:00,
2013-03-15 19:53:00,47.5,30.3,29.93,ENE,74,3.0,5.0,51,0.00,,SKC,0.00,VWS V14.00,2013-03-16 01:53:00,
2013-03-15 19:58:00,46.8,29.6,29.93,ENE,74,1.0,5.0,51,0.00,,SKC,0.00,VWS V14.00,2013-03-16 01:58:00,
2013-03-15 20:04:00,47.2,30.5,29.93,ENE,64,3.0,5.0,52,0.00,,SKC,0.00,VWS V14.00,2013-03-16 02:04:00,
2013-03-15 20:09:00,46.9,30.2,29.93,ENE,58,1.0,5.0,52,0.00,,SKC,0.00,VWS V14.00,2013-03-16 02:09:00,
2013-03-15 20:14:00,46.7,31.0,29.93,ENE,58,0.0,5.0,54,0.00,,SKC,0.00,VWS V14.00,2013-03-16 02:14:00,
2013-03-15 20:20:00,45.6,29.5,29.93,ENE,58,1.0,5.0,53,0.00,,SKC,0.00,VWS V14.00,2013-03-16 02:20:00,
2013-03-15 20:25:00,44.9,30.2,29.93,NE,51,1.0,5.0,56,0.00,,SKC,0.00,VWS V14.00,2013-03-16 02:25:00,
2013-03-15 20:30:00,44.9,29.7,29.93,East,80,2.0,5.0,55,0.00,,SKC,0.00,VWS V14.00,2013-03-16 02:30:00,
2013-03-15 20:35:00,44.9,30.6,29.93,NE,56,0.0,3.0,57,0.00,,SKC,0.00,VWS V14.00,2013-03-16 02:35:00,
2013-03-15 20:41:00,44.7,30.0,29.93,ENE,78,3.0,4.0,56,0.00,,SKC,0.00,VWS V14.00,2013-03-16 02:41:00,
2013-03-15 20:47:00,44.3,29.6,29.93,ENE,78,1.0,4.0,56,0.00,,SKC,0.00,VWS V14.00,2013-03-16 02:47:00,
2013-03-15 20:52:00,44.1,30.7,29.93,ENE,78,0.0,4.0,59,0.00,,SKC,0.00,VWS V14.00,2013-03-16 02:52:00,
2013-03-15 20:57:00,44.1,29.9,29.93,ENE,70,0.0,4.0,57,0.00,,SKC,0.00,VWS V14.00,2013-03-16 02:57:00,
2013-03-15 21:03:00,44.0,29.8,29.92,ENE,67,0.0,3.0,57,0.00,,SKC,0.00,VWS V14.00,2013-03-16 03:03:00,
2013-03-15 21:08:00,43.6,30.6,29.92,ENE,67,1.0,3.0,60,0.00,,SKC,0.00,VWS V14.00,2013-03-16 03:08:00,
2013-03-15 21:13:00,43.4,30.9,29.92,ENE,67,0.0,3.0,61,0.00,,SKC,0.00,VWS V14.00,2013-03-16 03:13:00,
2013-03-15 21:19:00,43.1,30.6,29.92,ENE,67,0.0,3.0,61,0.00,,SKC,0.00,VWS V14.00,2013-03-16 03:19:00,
2013-03-15 21:24:00,42.7,29.8,29.92,ENE,67,0.0,3.0,60,0.00,,SKC,0.00,VWS V14.00,2013-03-16 03:24:00,
2013-03-15 21:29:00,42.6,30.5,29.92,ENE,67,0.0,3.0,62,0.00,,SKC,0.00,VWS V14.00,2013-03-16 03:29:00,
2013-03-15 21:35:00,42.7,30.6,29.92,ENE,67,2.0,2.0,62,0.00,,SKC,0.00,VWS V14.00,2013-03-16 03:35:00,
2013-03-15 21:40:00,42.5,30.8,29.93,ENE,67,3.0,3.0,63,0.00,,SKC,0.00,VWS V14.00,2013-03-16 03:40:00,
2013-03-15 21:46:00,42.0,30.7,29.93,ENE,67,0.0,4.0,64,0.00,,SKC,0.00,VWS V14.00,2013-03-16 03:46:00,
2013-03-15 21:51:00,41.8,30.1,29.93,ENE,67,0.0,4.0,63,0.00,,SKC,0.00,VWS V14.00,2013-03-16 03:51:00,
2013-03-15 21:57:00,41.7,30.8,29.93,ENE,67,0.0,4.0,65,0.00,,SKC,0.00,VWS V14.00,2013-03-16 03:57:00,
2013-03-15 22:00:00,41.6,30.7,29.93,ENE,67,0.0,4.0,65,0.00,,SKC,0.00,VWS V14.00,2013-03-16 04:00:00,
2013-03-15 22:01:00,41.6,30.7,29.92,ENE,67,3.0,4.0,65,0.00,,SKC,0.00,VWS V14.00,2013-03-16 04:01:00,
2013-03-15 22:07:00,41.7,30.8,29.92,ENE,63,0.0,4.0,65,0.00,,SKC,0.00,VWS V14.00,2013-03-16 04:07:00,
2013-03-15 22:12:00,41.5,31.0,29.92,ENE,63,0.0,4.0,66,0.00,,SKC,0.00,VWS V14.00,2013-03-16 04:12:00,
2013-03-15 22:17:00,41.2,30.3,29.92,ENE,63,0.0,4.0,65,0.00,,SKC,0.00,VWS V14.00,2013-03-16 04:17:00,
2013-03-15 22:22:00,41.3,30.8,29.92,ENE,63,0.0,4.0,66,0.00,,SKC,0.00,VWS V14.00,2013-03-16 04:22:00,
2013-03-15 22:28:00,41.3,30.4,29.92,ENE,63,2.0,4.0,65,0.00,,SKC,0.00,VWS V14.00,2013-03-16 04:28:00,
2013-03-15 22:33:00,41.4,30.5,29.92,ENE,63,2.0,2.0,65,0.00,,SKC,0.00,VWS V14.00,2013-03-16 04:33:00,
2013-03-15 22:38:00,41.3,30.4,29.92,ENE,63,0.0,2.0,65,0.00,,SKC,0.00,VWS V14.00,2013-03-16 04:38:00,
2013-03-15 22:43:00,41.3,30.8,29.92,ENE,63,0.0,4.0,66,0.00,,SKC,0.00,VWS V14.00,2013-03-16 04:43:00,
2013-03-15 22:49:00,41.1,30.2,29.91,ENE,63,0.0,4.0,65,0.00,,SKC,0.00,VWS V14.00,2013-03-16 04:49:00,
2013-03-15 22:54:00,41.0,30.5,29.91,ENE,63,3.0,4.0,66,0.00,,SKC,0.00,VWS V14.00,2013-03-16 04:54:00,
2013-03-15 23:00:00,41.1,31.0,29.91,ENE,63,1.0,4.0,67,0.00,,SKC,0.00,VWS V14.00,2013-03-16 05:00:00,
2013-03-15 23:05:00,40.6,30.5,29.90,ENE,63,0.0,2.0,67,0.00,,SKC,0.00,VWS V14.00,2013-03-16 05:05:00,
2013-03-15 23:10:00,40.5,30.4,29.91,ENE,63,0.0,2.0,67,0.00,,SKC,0.00,VWS V14.00,2013-03-16 05:10:00,
2013-03-15 23:15:00,40.4,30.7,29.90,ENE,63,0.0,2.0,68,0.00,,SKC,0.00,VWS V14.00,2013-03-16 05:15:00,
2013-03-15 23:21:00,40.3,30.6,29.90,ENE,63,1.0,2.0,68,0.00,,SKC,0.00,VWS V14.00,2013-03-16 05:21:00,
2013-03-15 23:26:00,40.3,31.0,29.90,ENE,63,0.0,2.0,69,0.00,,SKC,0.00,VWS V14.00,2013-03-16 05:26:00,
2013-03-15 23:31:00,40.2,30.1,29.90,ENE,63,0.0,2.0,67,0.00,,SKC,0.00,VWS V14.00,2013-03-16 05:31:00,
2013-03-15 23:37:00,40.2,30.1,29.90,ENE,63,0.0,4.0,67,0.00,,SKC,0.00,VWS V14.00,2013-03-16 05:37:00,
2013-03-15 23:42:00,40.2,30.1,29.90,ENE,63,2.0,4.0,67,0.00,,SKC,0.00,VWS V14.00,2013-03-16 05:42:00,
2013-03-15 23:47:00,40.0,29.9,29.90,ENE,63,0.0,4.0,67,0.00,,SKC,0.00,VWS V14.00,2013-03-16 05:47:00,
2013-03-15 23:52:00,39.6,29.9,29.90,ENE,63,0.0,4.0,68,0.00,,SKC,0.00,VWS V14.00,2013-03-16 05:52:00,
2013-03-15 23:57:00,39.5,29.1,29.90,ENE,63,0.0,4.0,66,0.00,,SKC,0.00,VWS V14.00,2013-03-16 05:57:00,